Location: Abraham Lincoln Continuation High School
(33.9711°N, 117.3662°W)
Time: 04:01:39
(UTC+00:00)

Cosmos 1238 Rocket - Pass Details

Date: 21 September 2020
Orbit: 374 x 1028 km, 83.0° (Epoch: 25 October)

Event Time Altitude Azimuth Distance (km) Brightness Sun altitude
Rises 11:07:37 0° 354° (N) 3,768 7.3 -31.0°
Reaches altitude 10° 11:10:17 10° 355° (N) 2,783 6.6 -30.4°
Maximum altitude 11:16:47 87° 84° (E) 939 3.8 -29.2°
Enters shadow 11:17:10 79° 156° (SSE) 946 3.8 -29.1°
